SAS33K LIRF-EKCH

Flight info

Callsign SAS33K
Flight time 2h 7m
Altitude 36000
Route SOVAN DCT AMTEL DCT NUKNI DCT SUMIR DCT BRENO DCT KONIN DCT EXITI DCT EMBOX M726 ROSOK Q296 MONAK
Aircraft A321/M-SDE3FGHIRWY/LB1

Departure

Time 2026-05-04 15:49
Airport Rome–Fiumicino Leonardo da Vinci International Airport (LIRF)

Arrival

Time 2026-05-04 17:57
Airport Copenhagen Kastrup Airport (EKCH)
Time Latitude Longitude Altitude Speed Heading
2026-05-04 14:47 41.79593 12.25769 14 ft 0 kts 115°
2026-05-04 15:32 41.79600 12.25749 14 ft 3 kts 115°
2026-05-04 15:33 41.79605 12.25702 16 ft 3 kts 41°
2026-05-04 15:34 41.79633 12.25716 15 ft 3 kts 25°
2026-05-04 15:34 41.79653 12.25729 14 ft 1 kts 25°
2026-05-04 15:34 41.79654 12.25729 14 ft 0 kts 25°
2026-05-04 15:39 41.79667 12.25737 15 ft 4 kts 25°
2026-05-04 15:39 41.79696 12.25756 14 ft 5 kts 25°
2026-05-04 15:39 41.79768 12.25801 14 ft 5 kts 25°
2026-05-04 15:40 41.79800 12.25822 14 ft 6 kts 25°
2026-05-04 15:40 41.79829 12.25836 14 ft 4 kts
2026-05-04 15:40 41.79854 12.25823 15 ft 4 kts 336°
2026-05-04 15:40 41.79886 12.25831 14 ft 6 kts 24°
2026-05-04 15:41 41.79931 12.25859 14 ft 8 kts 24°
2026-05-04 15:41 41.79993 12.25897 15 ft 11 kts 25°
2026-05-04 15:41 41.80065 12.25942 14 ft 12 kts 25°
2026-05-04 15:41 41.80142 12.25990 15 ft 13 kts 25°
2026-05-04 15:42 41.80224 12.26040 14 ft 12 kts 25°
2026-05-04 15:42 41.80303 12.26089 16 ft 13 kts 25°
2026-05-04 15:42 41.80372 12.26132 15 ft 7 kts 25°
2026-05-04 15:42 41.80412 12.26157 16 ft 6 kts 25°
2026-05-04 15:43 41.80454 12.26175 17 ft 7 kts 11°
2026-05-04 15:43 41.80503 12.26185 16 ft 7 kts 22°
2026-05-04 15:43 41.80529 12.26242 16 ft 8 kts 69°
2026-05-04 15:43 41.80549 12.26315 18 ft 9 kts 69°
2026-05-04 15:44 41.80572 12.26396 16 ft 10 kts 70°
2026-05-04 15:44 41.80596 12.26486 16 ft 11 kts 70°
2026-05-04 15:44 41.80623 12.26584 15 ft 12 kts 70°
2026-05-04 15:44 41.80652 12.26690 15 ft 13 kts 69°
2026-05-04 15:45 41.80685 12.26806 14 ft 13 kts 70°
2026-05-04 15:45 41.80713 12.26912 13 ft 11 kts 70°
2026-05-04 15:45 41.80738 12.27001 13 ft 9 kts 70°
2026-05-04 15:45 41.80785 12.27048 13 ft 9 kts
2026-05-04 15:46 41.80843 12.27024 13 ft 9 kts 339°
2026-05-04 15:46 41.80898 12.26998 13 ft 8 kts 340°
2026-05-04 15:46 41.80948 12.26973 13 ft 6 kts 340°
2026-05-04 15:46 41.80959 12.26928 12 ft 6 kts 254°
2026-05-04 15:47 41.80956 12.26918 13 ft 0 kts 250°
2026-05-04 15:48 41.80956 12.26917 13 ft 0 kts 250°
2026-05-04 15:48 41.80798 12.26346 18 ft 93 kts 250°
2026-05-04 15:49 41.80502 12.25274 18 ft 149 kts 250°
2026-05-04 15:49 41.80113 12.23821 308 ft 169 kts 248°
2026-05-04 15:49 41.79719 12.22337 1002 ft 170 kts 245°
2026-05-04 15:49 41.79331 12.20866 1637 ft 169 kts 254°
2026-05-04 15:50 41.79341 12.19277 2164 ft 176 kts 280°
2026-05-04 15:50 41.79909 12.17740 2551 ft 197 kts 305°
2026-05-04 15:50 41.80811 12.16234 2820 ft 214 kts 306°
2026-05-04 15:50 41.81760 12.14647 3329 ft 221 kts 306°
2026-05-04 15:51 41.82718 12.13039 3971 ft 222 kts 306°
2026-05-04 15:51 41.83703 12.11431 4607 ft 225 kts 314°
2026-05-04 15:51 41.84986 12.10188 5156 ft 235 kts 334°
2026-05-04 15:51 41.86619 12.09473 5382 ft 259 kts 345°
2026-05-04 15:52 41.88432 12.08817 5624 ft 280 kts 345°
2026-05-04 15:52 41.90340 12.08123 6160 ft 288 kts 344°
2026-05-04 15:52 41.92285 12.07409 6809 ft 291 kts 343°
2026-05-04 15:52 41.94243 12.06684 7452 ft 293 kts 343°
2026-05-04 15:53 41.96235 12.06082 8114 ft 295 kts 353°
2026-05-04 15:53 41.98290 12.05871 8789 ft 297 kts 354°
2026-05-04 15:53 42.00364 12.05669 9426 ft 300 kts 354°
2026-05-04 15:53 42.02450 12.05464 10090 ft 302 kts 354°
2026-05-04 15:54 42.04565 12.05255 10538 ft 312 kts 354°
2026-05-04 15:54 42.06032 12.05108 10614 ft 326 kts 354°
2026-05-04 15:54 42.08359 12.04877 10735 ft 345 kts 354°
2026-05-04 15:54 42.10789 12.04638 11080 ft 354 kts 354°
2026-05-04 15:55 42.13261 12.04399 11626 ft 357 kts 354°
2026-05-04 15:55 42.16552 12.04063 12390 ft 359 kts 350°
2026-05-04 15:55 42.18966 12.03268 12889 ft 358 kts 340°
2026-05-04 15:55 42.21364 12.02306 13481 ft 360 kts 340°
2026-05-04 15:56 42.22988 12.01650 13882 ft 361 kts 340°
2026-05-04 15:56 42.25406 12.00668 14416 ft 363 kts 340°
2026-05-04 15:56 42.27831 11.99681 14919 ft 366 kts 340°
2026-05-04 15:56 42.30273 11.98686 15416 ft 368 kts 340°
2026-05-04 15:57 42.32735 11.97685 15899 ft 370 kts 340°
2026-05-04 15:57 42.35210 11.96678 16400 ft 373 kts 340°
2026-05-04 15:57 42.37669 11.95676 16873 ft 375 kts 340°
2026-05-04 15:57 42.40174 11.94650 17343 ft 378 kts 340°
2026-05-04 15:58 42.42701 11.93617 17823 ft 380 kts 339°
2026-05-04 15:58 42.45244 11.92577 18283 ft 383 kts 339°
2026-05-04 15:58 42.47805 11.91533 18696 ft 386 kts 340°
2026-05-04 15:58 42.50383 11.90483 19088 ft 388 kts 340°
2026-05-04 15:59 42.52968 11.89428 19489 ft 390 kts 340°
2026-05-04 15:59 42.55569 11.88363 19878 ft 392 kts 340°
2026-05-04 15:59 42.58188 11.87289 20267 ft 394 kts 340°
2026-05-04 15:59 42.60817 11.86212 20641 ft 396 kts 340°
2026-05-04 16:00 42.63460 11.85132 21008 ft 398 kts 340°
2026-05-04 16:00 42.66116 11.84046 21372 ft 400 kts 340°
2026-05-04 16:00 42.68786 11.82949 21737 ft 402 kts 340°
2026-05-04 16:00 42.71470 11.81844 22101 ft 404 kts 340°
2026-05-04 16:01 42.74167 11.80733 22469 ft 406 kts 340°
2026-05-04 16:01 42.76881 11.79614 22835 ft 408 kts 340°
2026-05-04 16:01 42.79603 11.78488 23198 ft 410 kts 340°
2026-05-04 16:01 42.82337 11.77358 23553 ft 412 kts 340°
2026-05-04 16:02 42.85090 11.76221 23852 ft 414 kts 340°
2026-05-04 16:02 42.87854 11.75081 24174 ft 416 kts 340°
2026-05-04 16:02 42.93375 11.72796 24811 ft 418 kts 340°
2026-05-04 16:03 42.96168 11.71636 25146 ft 419 kts 340°
2026-05-04 16:03 42.98960 11.70477 25470 ft 420 kts 340°
2026-05-04 16:03 43.01764 11.69310 25783 ft 421 kts 339°
2026-05-04 16:03 43.04576 11.68139 26085 ft 423 kts 339°
2026-05-04 16:04 43.07403 11.66961 26334 ft 426 kts 339°
2026-05-04 16:04 43.13086 11.64589 26936 ft 428 kts 339°
2026-05-04 16:04 43.15941 11.63396 27234 ft 429 kts 339°
2026-05-04 16:05 43.18802 11.62203 27527 ft 431 kts 339°
2026-05-04 16:05 43.21702 11.61123 27810 ft 435 kts 345°
2026-05-04 16:05 43.27803 11.60348 28310 ft 444 kts 352°
2026-05-04 16:06 43.30893 11.60081 28570 ft 446 kts 352°
2026-05-04 16:06 43.39170 11.59349 29255 ft 450 kts 352°
2026-05-04 16:07 43.43319 11.58981 29580 ft 452 kts 352°
2026-05-04 16:07 43.52785 11.58132 30202 ft 457 kts 352°
2026-05-04 16:08 43.55963 11.57854 30372 ft 458 kts 352°
2026-05-04 16:08 43.65476 11.57021 31126 ft 455 kts 352°
2026-05-04 16:09 43.71802 11.56458 31586 ft 454 kts 352°
2026-05-04 16:09 43.78110 11.55894 32067 ft 453 kts 352°
2026-05-04 16:10 43.84397 11.55352 32566 ft 452 kts 352°
2026-05-04 16:11 43.93850 11.54646 33113 ft 454 kts 353°
2026-05-04 16:11 43.97000 11.54414 33311 ft 453 kts 352°
2026-05-04 16:12 44.06429 11.53686 33916 ft 452 kts 352°
2026-05-04 16:12 44.15854 11.52935 34128 ft 452 kts 352°
2026-05-04 16:13 44.28396 11.51959 34121 ft 452 kts 353°
2026-05-04 16:14 44.40961 11.50974 34082 ft 452 kts 352°
2026-05-04 16:16 44.56650 11.49732 34070 ft 452 kts 353°
2026-05-04 16:17 44.72316 11.48507 34083 ft 451 kts 353°
2026-05-04 16:18 44.84843 11.47505 34111 ft 451 kts 353°
2026-05-04 16:19 45.00509 11.46259 34109 ft 452 kts 353°
2026-05-04 16:20 45.16288 11.44978 34083 ft 454 kts 353°
2026-05-04 16:22 45.32120 11.43708 34076 ft 456 kts 353°
2026-05-04 16:23 45.51176 11.42161 34069 ft 460 kts 354°
2026-05-04 16:25 45.70412 11.40582 34091 ft 463 kts 354°
2026-05-04 16:26 45.92920 11.38714 34120 ft 464 kts 354°
2026-05-04 16:28 46.09054 11.37379 34109 ft 465 kts 354°
2026-05-04 16:29 46.31682 11.35858 34093 ft 466 kts 359°
2026-05-04 16:31 46.47845 11.36532 34001 ft 464 kts 359°
2026-05-04 16:32 46.67111 11.36918 34028 ft 465 kts 359°
2026-05-04 16:33 46.80016 11.37237 34046 ft 465 kts 359°
2026-05-04 16:34 46.89736 11.37463 34040 ft 466 kts 359°
2026-05-04 16:35 47.09204 11.37611 33992 ft 467 kts 357°
2026-05-04 16:36 47.18950 11.37450 33944 ft 466 kts 358°
2026-05-04 16:37 47.28638 11.37374 33949 ft 467 kts 358°
2026-05-04 16:38 47.41668 11.37236 33943 ft 467 kts 358°
2026-05-04 16:39 47.57916 11.37077 33931 ft 468 kts 358°
2026-05-04 16:40 47.69859 11.36967 33934 ft 467 kts 358°
2026-05-04 16:41 47.86095 11.36793 33950 ft 467 kts 358°
2026-05-04 16:43 48.02317 11.37175 33944 ft 467 kts 359°
2026-05-04 16:43 48.12062 11.37416 33948 ft 466 kts 359°
2026-05-04 16:45 48.31606 11.37822 33946 ft 466 kts 359°
2026-05-04 16:46 48.47775 11.38203 33946 ft 466 kts 359°
2026-05-04 16:47 48.60731 11.38491 33926 ft 465 kts 359°
2026-05-04 16:48 48.73678 11.38790 33927 ft 465 kts 359°
2026-05-04 16:49 48.86619 11.39084 33928 ft 467 kts 359°
2026-05-04 16:50 48.99617 11.39385 33945 ft 467 kts 358°
2026-05-04 16:51 49.09380 11.39622 33954 ft 468 kts 358°
2026-05-04 16:52 49.22393 11.39915 33954 ft 467 kts 358°
2026-05-04 16:53 49.32129 11.40143 33959 ft 466 kts 358°
2026-05-04 16:54 49.45066 11.40457 33956 ft 465 kts 358°
2026-05-04 16:55 49.64481 11.40651 33970 ft 464 kts 355°
2026-05-04 16:56 49.80524 11.40164 33961 ft 461 kts 356°
2026-05-04 16:57 49.90152 11.39963 33956 ft 461 kts 355°
2026-05-04 16:58 50.02969 11.39688 33962 ft 462 kts 355°
2026-05-04 17:00 50.22164 11.39269 33967 ft 460 kts 355°
2026-05-04 17:01 50.38182 11.38897 33967 ft 460 kts 355°
2026-05-04 17:02 50.50938 11.38601 33964 ft 460 kts 355°
2026-05-04 17:03 50.60542 11.38408 33971 ft 460 kts 355°
2026-05-04 17:03 50.70141 11.38189 33972 ft 460 kts 355°
2026-05-04 17:04 50.82955 11.37884 33966 ft 460 kts 355°
2026-05-04 17:05 50.95728 11.37582 33977 ft 461 kts 355°
2026-05-04 17:06 51.05353 11.37343 33967 ft 461 kts 354°
2026-05-04 17:07 51.13935 11.37147 33967 ft 461 kts 354°
2026-05-04 17:07 51.21404 11.36978 33973 ft 461 kts 354°
2026-05-04 17:08 51.31037 11.36744 33972 ft 462 kts 354°
2026-05-04 17:09 51.37479 11.36594 33974 ft 462 kts 354°
2026-05-04 17:09 51.43912 11.36446 33975 ft 463 kts 354°
2026-05-04 17:10 51.60020 11.36073 33967 ft 464 kts 354°
2026-05-04 17:11 51.66431 11.35915 33960 ft 464 kts 354°
2026-05-04 17:12 51.76117 11.35682 33950 ft 463 kts 353°
2026-05-04 17:13 51.92222 11.35301 33947 ft 463 kts 353°
2026-05-04 17:14 52.01877 11.36955 33953 ft 472 kts
2026-05-04 17:14 52.05087 11.38112 33981 ft 472 kts
2026-05-04 17:15 52.14734 11.41228 33980 ft 470 kts
2026-05-04 17:16 52.27607 11.45049 33978 ft 470 kts
2026-05-04 17:17 52.40454 11.49055 33977 ft 470 kts
2026-05-04 17:18 52.53324 11.53050 33971 ft 471 kts
2026-05-04 17:19 52.66181 11.57077 33969 ft 471 kts
2026-05-04 17:20 52.79092 11.61132 33971 ft 472 kts
2026-05-04 17:20 52.88773 11.64189 33968 ft 472 kts
2026-05-04 17:21 53.01683 11.68304 33971 ft 472 kts
2026-05-04 17:22 53.08131 11.70367 33970 ft 472 kts
2026-05-04 17:23 53.21033 11.74501 33965 ft 471 kts
2026-05-04 17:24 53.30680 11.77617 33967 ft 471 kts
2026-05-04 17:25 53.43505 11.81768 33970 ft 470 kts
2026-05-04 17:26 53.56317 11.85952 33970 ft 472 kts
2026-05-04 17:27 53.71247 11.90881 33974 ft 466 kts
2026-05-04 17:27 53.77508 11.92962 33545 ft 450 kts
2026-05-04 17:28 53.83629 11.94984 32990 ft 443 kts
2026-05-04 17:29 53.92622 11.97965 32212 ft 439 kts
2026-05-04 17:29 54.01427 12.00906 31452 ft 436 kts
2026-05-04 17:30 54.10390 12.03920 30670 ft 429 kts
2026-05-04 17:31 54.16196 12.05874 29744 ft 422 kts
2026-05-04 17:31 54.24706 12.08762 28428 ft 408 kts
2026-05-04 17:32 54.30175 12.10611 27617 ft 398 kts
2026-05-04 17:33 54.38200 12.13337 26454 ft 384 kts
2026-05-04 17:33 54.40805 12.14227 26095 ft 380 kts
2026-05-04 17:34 54.48466 12.16846 24923 ft 368 kts
2026-05-04 17:34 54.50967 12.17707 24531 ft 365 kts
2026-05-04 17:35 54.58361 12.20251 23311 ft 357 kts
2026-05-04 17:35 54.63144 12.23500 22014 ft 371 kts 16°
2026-05-04 17:35 54.65509 12.25218 21639 ft 366 kts 16°
2026-05-04 17:36 54.67831 12.26826 21214 ft 362 kts 15°
2026-05-04 17:36 54.70166 12.28397 20825 ft 358 kts 15°
2026-05-04 17:36 54.72475 12.29941 20420 ft 354 kts 15°
2026-05-04 17:36 54.74759 12.31475 20046 ft 350 kts 15°
2026-05-04 17:37 54.77044 12.33022 19951 ft 357 kts 16°
2026-05-04 17:37 54.79378 12.34610 19939 ft 363 kts 16°
2026-05-04 17:37 54.81758 12.36237 19170 ft 374 kts 17°
2026-05-04 17:37 54.84193 12.37911 18520 ft 376 kts 17°
2026-05-04 17:38 54.86621 12.39594 17977 ft 374 kts 17°
2026-05-04 17:38 54.89020 12.41266 17521 ft 370 kts 17°
2026-05-04 17:38 54.91389 12.42920 17086 ft 364 kts 17°
2026-05-04 17:38 54.93722 12.44545 16668 ft 359 kts 17°
2026-05-04 17:39 54.98290 12.47726 15854 ft 349 kts 17°
2026-05-04 17:39 55.00531 12.49282 15452 ft 344 kts 17°
2026-05-04 17:39 55.02748 12.50806 15057 ft 340 kts 16°
2026-05-04 17:40 55.04909 12.52284 14667 ft 336 kts 16°
2026-05-04 17:40 55.07072 12.53763 14280 ft 332 kts 16°
2026-05-04 17:40 55.09217 12.55237 13896 ft 329 kts 16°
2026-05-04 17:40 55.11333 12.56700 13493 ft 326 kts 17°
2026-05-04 17:41 55.13432 12.58154 13125 ft 322 kts 17°
2026-05-04 17:41 55.15501 12.59590 12745 ft 318 kts 17°
2026-05-04 17:41 55.17544 12.61008 12371 ft 314 kts 17°
2026-05-04 17:41 55.19565 12.62413 12002 ft 310 kts 17°
2026-05-04 17:42 55.21560 12.63800 11639 ft 307 kts 17°
2026-05-04 17:42 55.23536 12.65164 11272 ft 303 kts 15°
2026-05-04 17:42 55.25513 12.66391 10920 ft 299 kts 13°
2026-05-04 17:42 55.27483 12.67513 10568 ft 296 kts 13°
2026-05-04 17:43 55.29416 12.68578 10228 ft 293 kts 12°
2026-05-04 17:43 55.31356 12.69643 9877 ft 291 kts 13°
2026-05-04 17:43 55.33278 12.70707 9502 ft 288 kts 13°
2026-05-04 17:43 55.35185 12.71727 9155 ft 285 kts
2026-05-04 17:44 55.37116 12.71682 8951 ft 276 kts 341°
2026-05-04 17:44 55.38939 12.70659 8951 ft 275 kts 336°
2026-05-04 17:44 55.40743 12.69509 8953 ft 276 kts 335°
2026-05-04 17:44 55.42535 12.68307 8952 ft 274 kts 330°
2026-05-04 17:45 55.43992 12.66282 8953 ft 265 kts 303°
2026-05-04 17:45 55.44702 12.63351 8950 ft 261 kts 276°
2026-05-04 17:45 55.44512 12.60199 8953 ft 263 kts 249°
2026-05-04 17:45 55.43462 12.57565 8953 ft 269 kts 223°
2026-05-04 17:46 55.41783 12.56064 8884 ft 276 kts 197°
2026-05-04 17:46 55.39848 12.56027 8482 ft 284 kts 170°
2026-05-04 17:46 55.38063 12.57568 8066 ft 292 kts 142°
2026-05-04 17:46 55.36824 12.60384 7643 ft 296 kts 115°
2026-05-04 17:47 55.36403 12.63897 7258 ft 295 kts 87°
2026-05-04 17:47 55.36839 12.67383 6869 ft 291 kts 63°
2026-05-04 17:47 55.37973 12.70263 6489 ft 285 kts 39°
2026-05-04 17:47 55.39570 12.72133 6108 ft 277 kts 19°
2026-05-04 17:48 55.41348 12.73387 5710 ft 275 kts 18°
2026-05-04 17:48 55.43118 12.74631 5337 ft 273 kts 18°
2026-05-04 17:48 55.44874 12.75873 4978 ft 271 kts 18°
2026-05-04 17:48 55.46614 12.77107 4631 ft 268 kts 18°
2026-05-04 17:49 55.48340 12.78330 4260 ft 267 kts 19°
2026-05-04 17:49 55.50052 12.79544 4010 ft 263 kts 19°
2026-05-04 17:49 55.51759 12.80759 4005 ft 265 kts 19°
2026-05-04 17:49 55.53475 12.81982 4008 ft 266 kts 19°
2026-05-04 17:50 55.55151 12.83179 4004 ft 252 kts 19°
2026-05-04 17:50 55.56719 12.84303 4004 ft 237 kts 19°
2026-05-04 17:50 55.58235 12.85389 4024 ft 235 kts 18°
2026-05-04 17:50 55.59749 12.86469 4011 ft 234 kts 18°
2026-05-04 17:51 55.61256 12.87544 4008 ft 234 kts 18°
2026-05-04 17:51 55.62769 12.88610 4017 ft 234 kts 16°
2026-05-04 17:51 55.64298 12.89575 4008 ft 233 kts 15°
2026-05-04 17:51 55.65825 12.90531 4011 ft 232 kts 15°
2026-05-04 17:52 55.67356 12.91438 4003 ft 230 kts
2026-05-04 17:52 55.68900 12.91332 3842 ft 219 kts 341°
2026-05-04 17:52 55.70318 12.90470 3405 ft 218 kts 336°
2026-05-04 17:52 55.71726 12.89467 3025 ft 216 kts 335°
2026-05-04 17:53 55.72916 12.87936 3006 ft 211 kts 306°
2026-05-04 17:53 55.73379 12.85527 3007 ft 209 kts 271°
2026-05-04 17:53 55.73085 12.83007 2929 ft 212 kts 248°
2026-05-04 17:53 55.72054 12.81144 2551 ft 217 kts 214°
2026-05-04 17:54 55.70824 12.79676 2240 ft 207 kts 223°
2026-05-04 17:54 55.69777 12.78044 1950 ft 196 kts 225°
2026-05-04 17:54 55.68774 12.76462 1711 ft 186 kts 225°
2026-05-04 17:54 55.67838 12.75000 1451 ft 173 kts 224°
2026-05-04 17:55 55.66970 12.73649 1236 ft 159 kts 225°
2026-05-04 17:55 55.66169 12.72402 1011 ft 147 kts 225°
2026-05-04 17:55 55.65416 12.71232 805 ft 141 kts 227°
2026-05-04 17:55 55.64681 12.70088 625 ft 141 kts 224°
2026-05-04 17:56 55.63951 12.68957 402 ft 142 kts 224°
2026-05-04 17:56 55.63216 12.67813 226 ft 139 kts 226°
2026-05-04 17:56 55.62478 12.66661 47 ft 140 kts 225°
2026-05-04 17:56 55.61811 12.65626 20 ft 107 kts 220°
2026-05-04 17:57 55.61400 12.64994 22 ft 45 kts 217°
2026-05-04 17:57 55.61291 12.64786 21 ft 20 kts 240°
2026-05-04 17:57 55.61250 12.64589 21 ft 17 kts 251°
2026-05-04 17:57 55.61215 12.64407 21 ft 15 kts 251°
2026-05-04 17:58 55.61185 12.64255 21 ft 11 kts 255°
2026-05-04 17:58 55.61211 12.64131 21 ft 11 kts 317°
2026-05-04 17:58 55.61283 12.64121 21 ft 9 kts 27°
2026-05-04 17:58 55.61338 12.64180 22 ft 10 kts 32°
2026-05-04 17:59 55.61400 12.64251 24 ft 11 kts 33°
2026-05-04 17:59 55.61469 12.64330 24 ft 12 kts 33°
2026-05-04 17:59 55.61629 12.64514 23 ft 15 kts 33°
2026-05-04 18:00 55.61723 12.64622 21 ft 17 kts 32°
2026-05-04 18:00 55.61826 12.64741 20 ft 18 kts 33°
2026-05-04 18:00 55.61935 12.64865 21 ft 17 kts 32°
2026-05-04 18:00 55.62036 12.64981 20 ft 16 kts 33°
2026-05-04 18:01 55.62112 12.65070 20 ft 4 kts 33°
2026-05-04 18:01 55.62142 12.65104 20 ft 6 kts 33°
2026-05-04 18:01 55.62187 12.65156 20 ft 10 kts 33°
2026-05-04 18:02 55.62289 12.65041 20 ft 11 kts 303°
2026-05-04 18:02 55.62334 12.64919 20 ft 12 kts 302°
2026-05-04 18:02 55.62381 12.64784 22 ft 13 kts 302°